Temp
16 15 15 15 14 14 14 14 14 13 13 13 13 13 13 13 13 13 13 13 13 13 13 13 13 13 13 13 13 14 14 14 14 14 14 14 14 14 14 14 14 14 14 14 13 13 13 13 13 12 12 12 12 12 12 13 13 12 12 11 11 10 10 9 9 9 8 8 8
16 15 15 15 14 14 14 14 13 13 13 13 13 13 13 13 13 13 13 13 13 13 13 13 13 13 13 13 13 13 14 14 14 14 14 14 14 14 14 14 14 14 14 14 13 13 13 13 12 12 12 12 12 12 12 12 12 12 12 11 10 10 9 9 9 9 8 8 7
15 15 15 14 14 14 14 13 13 13 13 13 13 13 13 13 13 13 13 13 13 13 13 13 13 13 13 13 13 13 13 13 14 14 14 14 14 14 14 14 14 14 14 14 13 13 13 13 13 12 12 12 11 11 11 11 11 11 11 11 10 10 9 9 9 8 8 7 7
15 15 15 14 14 14 14 14 13 13 13 13 13 13 13 13 13 13 13 13 13 13 13 13 13 13 13 13 13 13 13 13 13 13 14 14 14 14 14 14 14 14 13 13 13 13 13 13 13 12 12 12 11 11 11 11 11 11 11 10 10 9 9 9 8 8 7 7 7
15 15 15 15 14 14 14 14 14 13 13 13 13 13 13 13 13 13 13 13 13 13 13 13 13 13 13 13 13 13 13 13 13 13 13 13 13 13 13 13 13 13 13 13 13 13 13 13 12 12 12 12 11 11 11 10 10 10 10 10 9 9 9 8 8 8 7 7 7
15 15 15 15 15 14 14 14 14 14 13 13 13 13 13 13 13 13 13 13 13 13 13 13 13 13 13 13 13 13 13 13 13 13 13 13 13 13 13 13 13 13 13 13 13 13 13 13 12 12 12 11 11 11 10 10 10 10 9 9 9 9 8 8 8 7 7 7 7
15 15 15 15 15 15 14 14 14 13 13 13 13 13 13 13 13 13 13 13 13 13 13 13 12 12 12 12 12 12 12 12 12 12 12 12 13 13 12 13 13 13 13 13 13 13 13 12 12 12 11 11 11 10 10 10 9 9 9 9 9 8 8 8 7 7 7 7 7
15 15 15 15 15 15 14 14 14 13 13 13 13 13 13 13 13 13 13 13 13 13 13 13 12 12 12 12 12 12 12 12 12 12 12 12 12 12 12 12 12 12 12 12 12 12 12 12 12 12 11 11 11 10 10 9 9 9 9 8 8 8 8 8 7 7 7 6 6
15 15 15 15 15 15 14 14 14 13 13 13 13 13 13 13 13 13 13 13 13 13 13 13 13 12 12 12 12 12 12 12 12 12 12 12 12 11 11 11 11 12 12 12 12 12 12 11 11 11 11 11 10 10 9 9 8 8 8 8 8 8 8 8 7 7 7 6 6
15 15 15 15 15 14 14 14 14 14 13 13 13 13 13 13 13 13 13 13 13 13 13 13 13 12 12 12 12 12 12 12 11 11 11 11 11 11 11 11 11 11 11 11 11 11 11 11 11 11 11 10 10 10 9 9 8 8 8 8 8 8 8 8 7 7 6 6 6
15 15 15 15 15 14 14 14 14 13 13 13 13 13 13 13 13 13 13 13 13 12 12 13 13 12 12 12 12 12 12 11 11 11 11 11 11 11 11 11 11 11 10 10 11 11 11 11 11 11 10 10 10 10 9 9 8 8 8 8 8 8 8 7 7 7 6 6 6
15 15 15 15 15 14 14 14 13 13 13 13 13 13 13 13 13 13 13 13 12 12 12 12 12 12 12 12 12 11 11 11 11 11 11 11 11 11 11 11 11 10 10 10 10 10 10 10 10 10 10 10 10 10 9 9 8 8 8 8 8 8 8 7 7 7 7 7 7
15 15 15 15 14 14 14 14 14 13 13 13 13 13 13 13 13 13 13 12 12 12 12 12 12 12 12 12 11 11 11 11 11 11 11 10 10 10 10 10 10 10 10 10 10 10 10 10 10 10 10 10 10 10 9 9 9 8 8 8 8 8 7 7 7 7 7 7 8
15 15 15 15 14 14 14 14 14 13 13 13 13 13 13 13 13 13 13 13 12 12 12 12 12 12 12 12 11 11 10 10 10 10 10 10 10 10 10 10 10 10 10 10 10 10 10 10 10 10 10 10 10 10 10 9 9 9 9 8 8 8 7 7 7 7 8 8 8
15 15 15 15 14 14 14 14 14 13 13 13 13 13 13 13 13 13 13 12 12 12 12 12 12 12 11 11 11 10 10 10 10 10 10 9 9 9 9 9 9 9 9 9 9 10 10 10 10 10 10 10 10 10 10 9 9 9 9 9 8 8 7 7 7 8 8 8 8
15 15 15 14 14 14 14 14 14 13 13 13 13 13 13 13 13 13 12 12 12 12 12 12 12 11 11 11 10 10 10 10 9 9 9 9 9 9 9 9 9 9 9 9 9 9 9 10 10 10 10 10 10 10 10 10 9 9 9 8 8 8 7 8 8 8 8 8 8
15 15 14 14 14 14 14 14 13 13 13 13 13 13 13 13 13 12 12 12 12 12 12 12 12 11 11 10 10 10 10 9 9 9 9 9 8 8 8 8 8 8 8 8 8 9 9 9 10 10 10 10 10 10 10 10 9 9 8 8 8 7 7 8 8 8 8 8 7
15 14 14 14 14 14 14 14 14 13 13 13 13 13 13 13 13 12 12 12 12 12 12 12 11 11 11 10 10 10 10 9 9 9 9 8 8 8 8 8 8 8 8 8 8 9 9 9 9 10 10 10 10 10 9 9 9 9 8 8 7 7 7 8 8 8 8 7 7
14 14 14 14 14 14 14 14 14 13 13 13 13 13 13 13 13 12 12 12 12 12 12 12 11 11 11 10 10 10 10 9 9 9 9 9 8 8 8 8 8 8 8 8 8 9 9 9 9 10 10 10 9 9 9 9 9 8 8 7 7 7 7 8 8 7 7 7 7
15 14 14 14 14 14 14 14 14 14 13 13 13 13 13 13 13 12 12 12 12 12 12 11 11 11 11 10 10 10 10 9 9 9 9 9 9 9 9 9 9 9 9 8 9 9 9 9 10 10 10 10 9 9 9 9 8 8 7 7 7 7 8 8 7 7 7 7 7
14 14 14 14 14 14 14 14 13 13 13 13 13 13 13 13 12 12 12 12 12 12 11 11 11 11 11 10 10 10 10 9 9 9 9 9 9 9 9 9 9 9 9 9 9 9 9 10 10 10 10 10 9 9 9 9 8 7 7 7 7 7 8 7 7 7 7 7 7
14 14 14 14 14 13 13 13 13 13 13 13 13 13 13 12 12 12 12 12 12 11 11 11 11 11 11 10 10 10 10 9 9 9 9 9 9 9 9 9 9 9 9 9 9 9 10 10 10 10 10 10 10 9 9 9 8 8 7 7 7 8 7 7 7 7 7 7 7
14 13 13 13 13 13 13 13 13 13 12 12 12 12 12 12 12 12 12 11 11 11 11 11 11 11 11 10 10 10 9 9 9 8 8 8 8 8 8 8 8 8 8 9 9 9 10 10 10 10 10 10 10 10 9 9 8 8 8 8 8 8 7 7 7 7 7 7 7
13 13 13 13 13 12 12 12 12 12 12 12 12 12 12 12 12 11 11 11 11 11 11 10 10 10 10 10 10 10 9 9 8 8 8 8 8 8 8 8 8 8 8 9 9 9 10 10 9 9 9 10 10 10 9 9 8 8 8 8 8 7 7 7 7 7 7 7 7
13 13 13 12 12 12 12 12 12 12 12 12 12 12 12 12 11 11 11 11 11 11 10 10 10 10 10 9 9 9 9 9 9 8 8 8 8 8 8 8 8 8 8 8 9 9 9 9 9 9 9 10 10 9 9 9 8 8 8 8 7 7 7 7 7 7 7 7 7
12 12 12 12 12 12 12 12 12 12 12 12 11 11 11 11 11 11 11 11 11 10 10 10 10 10 9 9 9 9 9 9 9 9 8 8 8 8 8 8 8 8 8 8 9 9 9 9 9 9 10 10 9 9 9 8 8 8 8 8 7 7 7 7 8 8 8 7 7
12 12 12 12 12 12 12 11 11 11 11 11 11 11 11 11 11 11 11 10 10 10 10 10 10 9 9 9 9 9 9 9 9 9 9 8 8 8 8 8 8 8 8 9 9 9 9 9 9 9 9 9 9 9 9 9 8 8 8 7 7 7 7 8 8 8 8 8 7
12 12 12 12 11 11 11 11 11 11 11 11 11 11 11 11 10 10 10 10 10 10 9 9 9 9 9 9 9 9 9 9 8 8 8 8 8 8 8 8 8 8 8 9 9 9 9 8 9 9 9 9 9 9 9 8 8 8 7 7 7 7 8 8 8 8 8 8 8
12 12 11 11 11 11 11 11 11 11 11 11 11 10 10 10 10 10 10 10 9 9 9 9 9 9 9 9 9 9 9 8 8 8 8 8 8 8 8 8 8 8 9 9 9 8 8 8 8 9 9 9 9 9 8 8 8 7 7 7 8 8 8 8 8 8 8 7 7
11 11 11 11 11 11 11 11 11 11 10 10 10 10 10 10 10 10 9 9 9 9 9 9 9 8 8 8 8 8 8 8 8 8 8 8 7 8 8 8 8 8 9 9 9 8 8 8 8 8 8 9 9 8 8 8 8 7 7 7 8 8 8 8 7 7 7 7 7
11 11 11 11 11 10 10 10 10 10 10 10 10 10 10 10 9 9 9 9 9 9 9 9 8 8 8 8 8 8 8 8 8 8 8 7 7 8 8 8 8 8 9 9 8 8 8 8 8 8 8 8 8 8 8 8 7 7 7 7 7 7 7 7 7 7 7 7 7
11 11 11 10 10 10 10 10 10 10 10 10 9 9 9 9 9 9 9 9 9 8 8 8 8 8 8 8 8 8 8 8 7 7 7 7 7 7 8 8 8 8 9 9 8 8 8 8 8 8 8 8 8 8 8 7 7 7 7 7 7 7 7 6 6 6 7 7 7
11 11 10 10 10 10 10 10 9 9 9 9 9 9 9 9 9 8 8 8 8 8 8 8 8 8 8 8 8 7 7 7 7 7 7 7 7 7 7 8 8 8 9 8 8 8 8 8 8 7 7 7 7 7 7 7 7 7 7 7 6 6 6 6 6 6 7 7 6
10 10 10 10 10 10 10 9 9 9 9 8 8 8 8 8 8 8 8 8 8 7 8 8 8 8 7 7 7 7 7 7 7 7 7 7 7 7 7 8 8 8 8 8 8 8 7 7 7 7 6 6 6 6 6 6 6 6 6 6 6 6 6 6 6 7 6 6 6
10 10 10 10 10 9 9 9 9 8 8 8 8 8 8 8 8 8 8 7 7 7 7 7 7 7 7 7 7 7 7 7 7 7 7 7 7 7 7 8 8 8 8 8 8 7 7 7 7 6 6 6 5 5 5 5 5 6 6 6 6 6 6 7 6 6 6 6 6
10 10 10 10 9 9 9 9 8 8 8 8 8 8 8 8 7 7 7 7 7 7 6 6 6 6 6 6 6 6 6 6 6 6 6 6 6 7 7 8 8 8 8 8 7 7 7 6 6 6 6 5 5 5 5 5 5 5 5 6 6 6 6 6 6 6 6 6 5
10 10 10 9 9 9 9 8 8 8 8 8 8 8 8 7 7 7 7 7 6 6 6 6 6 6 6 6 6 6 6 6 6 6 6 6 6 7 7 7 8 8 8 7 7 7 7 6 6 6 5 5 5 5 5 5 5 5 5 5 6 6 6 6 6 6 5 5 5
10 10 10 9 9 9 8 8 8 8 8 8 8 8 7 7 7 7 6 6 6 6 6 6 6 6 6 6 6 6 6 6 6 6 6 6 6 7 7 7 7 8 8 7 7 7 6 6 6 6 6 6 5 5 5 5 5 5 5 5 5 5 6 5 5 5 5 5 5
10 10 9 9 9 9 8 8 8 8 8 8 8 7 7 7 7 7 6 6 6 6 6 6 6 6 6 6 6 6 6 6 6 6 6 6 6 7 7 7 7 7 7 7 7 7 7 6 6 6 6 6 6 6 6 5 5 5 5 5 5 5 5 5 5 5 5 5 5
9 9 9 9 9 9 8 8 8 8 8 8 8 7 7 7 7 6 6 6 6 6 6 6 6 6 6 6 5 5 6 6 6 6 6 6 6 6 7 7 7 7 7 7 7 7 7 7 7 6 6 6 6 6 5 5 5 5 5 5 5 5 5 5 5 5 5 5 5
9 9 9 9 9 8 8 8 8 8 8 8 7 7 7 7 6 6 6 6 6 6 6 6 6 5 5 5 5 5 5 5 6 6 6 6 6 6 6 7 7 7 7 7 7 7 7 7 7 6 6 6 6 5 5 5 5 5 5 5 5 5 5 5 5 4 4 4 4
Height
771 773 774 775 776 777 778 780 781 782 784 785 786 787 788 789 790 791 792 793 794 795 796 797 798 800 801 802 804 805 806 807 808 810 810 812 813 814 815 816 817 818 819 820 821 822 823 824 824 825 826 826 826 826 826 826 826 826 827 828 828 829 829 830 830 830 830 830 830
770 771 773 774 775 776 778 779 780 782 783 784 785 786 787 788 789 790 791 792 793 794 795 797 798 799 800 801 802 804 805 806 807 808 809 810 811 813 814 815 815 816 817 818 820 820 821 822 823 824 825 825 825 825 825 825 825 825 826 826 827 828 829 829 830 830 830 830 830
769 770 771 773 774 776 777 778 780 780 782 783 784 785 786 787 789 790 790 791 793 794 795 796 797 798 799 800 801 803 804 805 806 807 808 809 810 811 812 813 814 815 816 817 818 819 820 821 821 822 823 824 824 824 824 824 824 825 825 825 826 827 828 829 829 830 830 830 830
768 769 770 771 773 774 775 777 778 779 781 782 784 785 786 787 788 789 790 791 792 793 794 795 796 797 798 799 800 801 803 804 805 806 807 808 809 810 811 812 813 814 815 816 817 818 819 820 820 821 821 822 823 823 824 824 824 824 824 825 826 826 827 828 829 829 829 829 829
766 768 769 770 771 773 774 775 777 778 780 781 783 784 785 786 787 788 789 790 791 792 793 794 795 796 797 798 800 800 802 803 804 805 805 806 807 808 810 810 811 812 813 814 815 816 817 818 819 820 820 821 822 822 823 823 823 823 824 824 825 826 827 828 828 829 829 829 829
765 767 768 769 771 772 774 775 776 777 779 780 781 783 784 785 786 787 788 789 790 791 792 793 794 795 796 797 799 800 800 801 803 804 804 805 806 807 808 809 810 811 812 813 814 815 816 817 818 818 819 820 821 822 822 823 823 823 823 823 824 825 826 827 828 828 828 829 829
764 766 767 769 770 771 773 774 775 776 778 779 780 781 782 783 785 785 786 787 789 790 791 792 794 795 795 796 797 799 800 800 801 802 803 804 805 806 807 808 809 810 811 812 813 814 815 815 816 817 818 819 820 820 821 822 822 822 822 823 824 825 825 826 827 828 828 828 828
763 765 766 768 769 770 772 773 774 775 777 778 779 780 781 782 783 784 785 786 787 789 790 791 792 793 794 795 796 797 798 799 800 801 802 803 804 805 806 807 808 809 810 810 811 812 814 815 815 816 817 817 818 819 820 821 822 822 822 822 823 824 825 826 826 827 827 828 828
763 764 765 767 768 769 770 771 773 774 775 776 777 779 780 781 782 783 784 785 786 787 788 790 791 792 793 794 795 796 797 798 799 800 801 802 803 804 805 806 807 808 809 810 810 812 813 814 814 815 815 816 817 818 820 820 821 821 822 822 822 823 824 825 825 826 827 827 828
762 763 765 766 767 768 770 770 771 773 774 775 776 778 779 780 781 782 783 784 785 786 787 788 790 791 792 793 794 795 795 797 798 799 800 800 802 803 804 805 806 807 808 809 810 811 812 813 813 814 815 816 817 818 819 820 821 821 821 821 822 822 823 824 825 825 826 826 827
760 762 764 765 766 767 769 770 771 772 773 775 776 777 778 779 780 781 782 783 784 785 786 787 788 789 790 791 792 793 794 795 796 798 799 800 800 801 802 803 805 805 806 807 809 810 811 812 812 813 814 815 816 817 819 820 820 820 821 821 821 822 822 823 824 825 825 826 826
760 761 763 764 765 766 768 769 770 771 773 774 775 776 777 778 779 780 781 782 783 784 785 786 787 788 789 790 791 792 793 794 795 796 797 798 799 800 801 802 803 804 805 806 807 809 810 810 811 811 813 814 815 816 817 818 819 820 820 820 820 821 821 822 823 824 824 825 825
759 760 762 763 764 765 767 768 769 770 771 773 774 775 776 777 778 779 780 781 782 783 784 785 786 787 788 789 790 791 792 793 794 795 796 797 798 799 800 801 801 802 803 804 805 807 808 809 809 810 811 812 814 815 816 817 818 818 819 819 820 820 820 821 822 823 823 824 824
759 760 761 762 763 765 766 767 768 769 770 772 773 774 775 776 777 778 779 780 781 782 783 785 785 786 787 788 789 790 791 792 793 794 795 796 797 797 798 799 800 801 802 803 804 805 806 807 808 809 810 811 812 813 815 815 816 817 817 818 818 819 820 820 821 822 822 823 823
758 759 760 761 762 764 765 766 767 768 770 770 772 773 774 775 776 777 778 779 780 781 782 783 784 785 786 787 788 789 790 791 792 793 794 795 796 797 798 798 799 800 801 802 803 804 806 807 808 809 810 810 811 812 813 814 815 815 816 817 817 818 819 820 820 821 821 822 822
757 758 760 760 762 763 764 765 766 767 769 770 771 772 773 775 775 776 777 779 780 781 782 782 783 784 785 786 787 789 790 790 791 792 793 794 795 796 797 798 799 800 800 801 802 804 805 806 808 809 810 810 811 812 812 813 814 814 815 816 817 817 818 819 820 820 821 821 822
756 758 759 760 761 762 763 764 765 767 768 769 770 771 772 774 775 776 777 778 779 780 780 781 782 783 785 785 786 788 789 790 790 791 792 793 794 795 796 797 798 799 800 801 802 803 805 806 808 809 809 810 810 811 811 812 813 814 814 815 816 816 817 818 819 819 820 820 821
756 757 758 759 760 761 762 764 765 766 767 768 769 770 772 773 774 775 776 777 778 778 779 780 781 782 783 784 785 786 787 788 789 790 791 792 793 794 795 796 797 798 800 800 802 803 805 806 807 808 809 810 810 810 811 811 812 813 814 814 815 815 816 817 818 819 820 820 820
755 756 758 759 760 760 762 763 764 765 766 767 769 770 771 772 773 774 775 776 776 777 778 779 780 781 782 783 784 785 786 786 787 789 790 791 792 793 794 795 796 797 799 800 801 803 805 806 807 808 808 809 809 810 810 811 811 812 813 813 814 815 815 816 817 818 819 819 819
755 756 757 758 759 760 761 762 763 764 765 766 768 769 770 771 772 773 774 775 775 776 778 779 779 780 781 782 783 784 785 785 786 787 788 789 790 791 792 793 795 796 797 799 800 802 804 806 807 807 807 808 808 809 809 810 811 811 812 812 813 814 815 816 817 817 818 818 818
755 755 756 758 759 760 761 762 763 764 765 766 767 768 769 770 771 772 773 774 775 776 777 778 778 779 780 781 782 783 784 785 785 786 787 788 789 790 791 792 793 794 795 797 799 801 803 804 805 805 806 806 807 808 808 809 810 810 811 811 812 813 814 815 816 816 817 817 817
754 755 756 757 758 760 760 761 762 764 765 765 767 768 769 770 770 772 773 774 775 775 776 777 778 778 779 780 781 782 783 784 785 786 787 787 788 789 790 791 792 793 795 796 797 799 800 802 803 804 805 805 806 807 807 808 809 809 810 810 811 812 813 814 815 815 815 816 816
754 755 756 757 758 759 760 761 762 763 764 765 766 767 768 769 770 771 772 773 774 775 775 776 777 778 779 780 780 781 782 783 785 785 786 787 788 789 790 791 792 793 794 795 797 798 799 800 801 802 803 804 805 805 806 807 807 808 809 810 810 811 812 813 814 814 814 815 815
754 755 756 757 758 759 760 761 762 763 764 765 766 767 768 769 770 771 772 773 773 774 775 776 777 778 779 780 780 781 782 783 784 785 786 787 788 789 790 790 791 793 794 795 796 797 798 799 800 801 802 803 804 804 805 805 806 807 808 809 810 810 811 812 812 813 813 813 813
754 755 756 757 758 759 760 761 762 763 764 765 766 767 768 769 770 770 771 772 773 774 775 775 776 777 778 779 780 781 781 782 783 784 785 786 787 788 789 790 791 792 793 795 796 797 798 798 799 800 801 802 803 803 804 805 805 806 807 808 809 809 810 811 811 812 812 812 812
754 755 756 757 758 759 760 761 762 763 764 765 765 766 767 768 769 770 770 771 772 773 774 775 776 777 778 779 780 780 781 782 783 784 785 785 786 787 788 789 790 791 792 793 795 796 797 798 799 800 800 801 802 802 803 804 804 805 806 807 808 808 809 810 810 810 810 811 811
754 755 756 757 758 759 760 760 761 762 763 764 765 766 767 768 769 770 770 771 772 773 774 775 775 776 777 778 779 780 781 782 783 783 784 785 785 786 787 788 789 790 791 792 794 795 797 798 799 799 800 800 801 801 802 803 804 804 805 806 807 807 808 809 809 809 809 809 809
754 755 756 757 758 759 760 760 761 762 763 764 765 766 766 767 768 769 770 771 771 772 773 774 775 775 776 777 778 779 780 781 782 783 784 784 785 785 786 787 788 789 790 792 794 795 796 797 798 799 799 800 800 801 801 802 803 804 804 805 806 806 807 807 808 808 808 808 808
754 755 755 756 757 758 759 760 761 762 763 764 765 765 766 767 768 769 770 770 771 772 772 773 774 775 776 777 777 778 779 780 781 782 783 784 784 785 786 787 788 789 790 792 794 795 796 797 797 798 799 799 800 800 801 801 802 803 804 804 805 805 806 806 806 806 806 806 806
754 755 755 756 757 758 759 760 760 761 762 763 764 765 766 766 767 768 769 770 770 771 772 773 774 775 775 776 777 778 779 780 780 781 782 783 784 784 785 786 787 789 790 792 793 794 795 796 797 798 798 799 799 800 800 801 802 802 803 803 804 804 805 805 805 805 805 805 805
753 754 755 756 757 758 759 760 760 761 762 763 764 765 765 766 767 768 769 769 770 771 772 773 774 774 775 776 777 777 778 779 780 780 781 782 783 784 785 786 787 789 790 792 793 794 795 796 796 797 798 798 799 799 800 800 801 802 802 802 803 803 804 804 804 804 804 804 804
753 754 755 756 757 758 759 760 760 761 762 763 764 764 765 766 767 768 769 769 770 771 772 773 773 774 775 775 776 777 778 778 779 780 781 781 783 784 785 786 787 789 790 791 793 794 794 795 796 796 797 797 798 798 799 800 800 801 802 802 802 803 803 803 803 803 803 803 802
753 754 755 756 757 758 759 760 760 761 762 763 764 764 765 766 767 768 769 769 770 771 771 772 773 774 774 775 776 776 777 778 779 780 780 781 783 784 785 786 787 789 790 791 792 793 794 795 795 796 797 797 798 798 799 799 800 800 801 801 801 802 802 802 802 801 801 801 801
753 754 755 755 756 757 758 759 760 761 762 763 764 764 765 766 767 767 768 769 770 770 771 772 772 773 774 775 775 776 777 778 779 780 780 782 783 784 785 786 787 789 790 791 792 793 794 794 795 795 796 797 797 798 798 798 799 799 800 800 800 800 800 800 800 800 800 800 800
753 754 755 755 756 757 758 759 760 761 762 763 763 764 765 766 766 767 768 769 770 770 771 772 773 773 774 775 775 776 777 778 779 780 780 782 783 784 785 786 787 788 790 791 792 792 793 794 795 795 796 797 797 797 797 798 798 798 798 799 799 799 799 799 799 799 799 799 799
752 753 754 755 756 757 758 759 760 761 762 762 763 764 765 765 766 767 768 769 770 770 771 772 772 773 774 775 775 776 777 778 779 780 780 781 783 784 785 785 787 788 790 790 791 792 793 794 794 795 795 796 796 796 797 797 797 797 797 797 797 797 797 797 797 797 797 797 797
752 753 754 755 756 757 758 759 760 760 761 762 763 764 765 765 766 767 768 769 769 770 770 771 772 773 774 774 775 776 777 778 779 780 780 781 782 783 785 785 787 788 789 790 791 792 792 793 794 794 795 795 795 795 796 796 796 796 796 796 796 796 796 796 796 796 796 796 796
752 753 754 755 756 757 758 759 760 760 761 762 763 764 764 765 766 767 768 768 769 770 770 771 772 772 773 774 775 776 777 778 779 780 780 781 782 783 784 785 787 788 789 790 791 791 792 792 793 794 794 794 794 795 795 795 795 795 795 795 795 795 795 795 795 795 795 795 795
752 753 754 755 756 757 758 759 760 760 761 762 763 764 764 765 766 766 767 768 769 769 770 771 771 772 773 774 775 776 777 778 779 779 780 781 782 783 785 785 787 788 789 790 790 791 791 792 792 793 793 793 794 794 794 794 794 794 794 794 794 794 793 794 794 793 793 793 793
752 753 754 755 756 757 758 759 759 760 761 762 763 763 764 765 766 766 767 768 769 769 770 771 771 772 773 774 775 776 777 777 778 779 780 781 782 783 785 785 787 788 789 790 790 790 791 791 792 792 793 793 793 793 793 793 793 793 793 792 792 792 792 792 792 792 792 792 792
752 753 754 755 756 757 758 759 760 760 761 762 763 763 764 765 766 766 767 768 769 769 770 771 772 773 773 774 775 776 776 777 778 779 780 781 782 783 784 785 786 787 788 789 790 790 790 791 791 791 792 792 792 792 792 792 792 792 791 791 791 791 790 790 790 790 790 790 790
Wind_Speed
28 28 28 28 29 30 30 30 29 30 30 31 31 31 31 31 32 32 33 34 35 36 36 37 38 39 39 39 40 40 40 39 38 37 36 35 33 32 30 30 30 31 31 30 29 27 26 25 24 23 22 21 19 17 15 14 13 12 11 11 11 11 11 12 12 12 12 12 11
29 28 28 28 29 30 30 29 29 29 30 31 31 31 31 32 32 32 33 34 35 36 36 37 37 38 38 39 40 40 40 40 39 38 37 35 34 32 31 30 30 31 31 31 30 28 27 26 25 24 23 21 20 18 17 15 14 13 13 12 12 12 12 12 12 12 12 12 11
29 29 28 28 28 28 29 29 29 29 30 30 31 31 31 32 32 32 33 34 35 36 36 36 37 38 39 39 40 40 40 40 39 38 37 36 35 33 32 31 31 31 32 31 30 29 28 26 25 24 23 22 20 19 18 17 15 14 14 13 12 12 12 12 12 12 12 12 12
30 30 29 28 28 29 30 30 30 30 30 30 30 31 31 31 32 32 33 34 34 35 36 37 37 38 39 39 40 40 40 40 40 39 38 37 35 34 33 32 32 32 32 32 31 30 28 27 26 25 24 23 21 20 19 18 17 15 14 13 13 12 12 12 12 13 13 12 12
30 30 30 29 30 30 31 31 31 31 30 30 30 30 30 31 31 32 32 33 34 35 37 37 38 38 39 39 40 40 40 40 39 39 38 37 36 35 34 33 32 32 32 32 31 30 29 27 26 25 24 23 21 21 20 19 18 16 15 14 13 13 12 12 13 13 13 13 12
31 31 31 30 31 31 31 31 31 31 30 30 30 30 31 31 32 32 32 33 35 36 37 37 37 38 38 38 39 39 39 39 39 39 38 38 37 36 35 34 33 33 33 32 32 31 29 28 27 25 24 23 22 21 21 20 18 17 16 15 14 13 13 13 13 13 13 13 12
32 31 31 31 31 31 30 30 30 30 30 30 31 31 32 32 33 33 34 35 35 36 36 37 37 37 38 38 38 39 39 39 39 38 38 37 37 36 35 34 34 33 33 33 32 31 30 28 27 26 25 23 22 22 21 20 19 17 16 15 14 13 13 13 14 14 13 13 13
32 32 32 31 31 31 31 31 30 30 30 31 31 32 33 34 34 34 34 35 35 36 36 37 37 38 38 39 39 39 39 39 39 38 38 37 37 36 35 34 34 34 34 33 33 32 30 28 27 26 25 24 23 23 22 21 19 18 16 15 14 13 13 14 14 14 13 13 13
31 31 32 32 31 31 31 31 31 31 31 31 32 33 33 34 34 34 34 34 35 36 37 37 38 38 38 39 39 39 39 39 39 38 38 37 36 36 35 34 34 34 34 34 33 31 30 28 27 26 25 24 24 23 21 20 19 18 17 15 14 14 13 14 14 14 14 13 13
31 31 31 31 31 31 31 31 31 31 31 32 32 33 33 34 34 34 35 35 36 36 37 37 38 38 38 39 39 39 39 39 39 38 38 37 36 36 35 35 34 34 34 34 32 31 29 28 27 26 25 24 23 22 21 20 19 18 17 16 15 14 14 14 14 14 14 14 13
32 32 32 32 31 31 31 31 31 31 31 31 31 32 33 33 34 34 35 35 35 35 36 37 38 38 39 39 39 39 39 38 38 38 38 37 37 36 35 35 35 35 35 34 32 30 29 29 28 27 25 24 22 21 20 19 19 19 17 16 15 15 15 14 14 14 14 13 12
32 32 32 32 31 31 31 30 30 30 30 30 31 32 32 33 34 34 34 34 34 35 36 36 37 38 39 39 39 38 38 38 38 38 37 37 37 36 36 35 35 35 35 34 32 31 30 30 29 27 25 24 22 20 20 20 19 19 18 17 16 15 15 15 14 14 13 12 11
32 32 32 32 31 31 30 30 30 30 30 30 31 32 32 33 34 34 34 34 34 34 35 35 36 37 38 38 38 37 37 37 37 37 37 37 37 36 36 36 36 36 36 35 33 32 31 31 30 28 26 24 22 21 20 20 20 19 19 17 17 16 16 15 14 13 12 11 11
31 32 32 32 31 30 30 30 30 30 30 31 31 31 32 32 33 33 34 34 34 34 34 35 35 36 36 37 37 36 36 36 37 37 37 37 37 36 36 36 36 36 36 35 34 33 32 31 30 28 26 24 22 21 20 20 20 19 18 18 17 17 16 14 13 12 11 11 12
31 31 31 31 31 30 30 30 30 30 30 31 31 31 31 32 32 33 33 33 33 33 34 34 34 35 35 35 35 35 35 35 36 36 35 35 35 35 35 35 35 35 35 34 33 33 32 31 29 27 25 23 22 20 20 19 19 19 18 17 17 16 14 13 12 11 11 12 13
30 30 31 30 30 30 29 30 30 30 30 30 31 31 31 31 32 32 32 32 32 33 33 33 33 33 33 33 33 33 33 34 34 34 34 34 34 34 34 34 34 34 34 33 33 32 31 30 28 26 24 22 20 19 19 19 18 18 17 17 16 14 13 12 11 11 12 13 14
28 29 29 30 30 30 30 30 30 30 30 30 30 31 31 31 31 31 32 32 32 32 32 32 33 32 32 32 32 32 32 33 33 33 33 33 33 33 32 32 32 33 32 32 31 31 30 29 27 24 22 20 19 19 18 18 18 18 17 17 16 14 13 12 12 12 13 14 15
27 28 28 29 29 29 29 30 30 30 30 30 30 30 31 31 30 31 31 31 32 32 32 32 32 32 31 31 31 32 32 32 33 33 33 33 32 32 32 32 32 32 31 31 30 30 29 27 25 22 21 19 19 18 17 17 17 17 17 17 16 15 14 13 13 14 15 15 15
25 26 27 28 28 29 29 29 30 30 30 30 30 30 30 30 30 30 30 31 31 32 31 31 31 31 31 31 31 32 32 32 32 33 33 33 33 32 32 32 32 32 31 30 30 28 27 25 23 21 20 19 18 18 17 17 17 17 17 17 16 15 14 14 14 15 15 15 16
24 25 26 27 28 28 29 29 30 30 30 30 30 30 30 30 30 30 30 30 31 31 31 31 31 30 30 31 31 31 32 32 32 33 33 33 33 33 33 33 33 33 32 31 29 27 25 23 22 21 20 20 19 18 17 17 18 18 18 17 16 15 14 14 15 15 16 16 16
24 24 25 26 27 27 28 29 29 29 29 29 29 29 30 30 30 30 30 30 30 30 30 30 30 30 30 30 31 31 31 32 32 32 33 33 33 34 34 34 34 33 32 31 29 27 25 23 22 22 21 20 19 18 18 18 18 18 17 16 15 15 15 15 15 15 16 16 16
23 23 24 25 26 26 27 27 28 28 28 28 29 29 29 29 29 29 29 29 29 29 29 29 30 30 30 30 30 31 31 31 31 31 32 32 32 32 32 33 33 32 31 30 28 27 25 25 24 22 21 20 19 18 18 18 18 17 17 16 15 15 15 15 15 15 15 16 16
22 23 23 24 25 25 26 27 27 27 27 27 28 28 28 28 28 28 28 28 28 28 29 29 29 29 29 30 30 30 30 30 30 30 30 31 31 31 31 31 31 30 30 29 28 27 27 26 25 23 22 20 19 18 18 18 17 17 16 16 15 15 15 15 15 15 15 15 15
21 22 23 23 24 25 25 26 26 26 27 27 27 27 27 27 27 27 28 28 28 28 28 28 28 28 28 28 29 29 29 29 29 29 29 29 30 30 30 30 29 28 28 27 27 27 27 26 25 23 22 20 19 18 18 17 17 16 16 15 15 15 15 14 14 15 15 16 16
21 21 22 23 23 24 25 25 26 26 26 26 26 26 26 27 27 27 27 27 27 27 27 27 27 27 27 27 28 28 28 28 28 28 28 29 29 29 29 29 28 27 27 27 27 28 27 26 24 23 22 21 20 19 18 17 16 16 15 15 15 15 14 14 14 15 15 16 17
20 21 21 22 23 23 24 24 25 25 25 25 25 26 26 26 26 27 27 27 27 27 27 27 27 27 27 27 27 27 27 27 28 28 28 29 29 29 28 28 27 27 27 27 28 27 26 24 23 22 21 20 19 18 18 17 16 16 16 15 15 14 14 14 14 15 16 17 17
19 20 20 21 21 22 23 23 24 24 24 25 25 25 25 26 26 26 26 26 26 26 26 26 26 26 26 26 26 26 27 27 27 27 28 28 29 28 28 27 27 27 27 27 27 26 25 24 23 22 21 20 19 18 17 17 16 16 16 16 15 14 14 14 15 15 16 17 17
19 19 19 20 20 21 21 22 22 23 23 24 24 24 24 25 25 26 26 26 26 26 26 26 26 26 26 26 26 26 26 27 27 27 27 28 28 28 28 27 27 26 26 26 25 25 24 23 22 22 21 19 18 17 17 16 16 16 16 16 15 15 14 15 15 16 17 17 17
19 19 19 19 20 20 21 21 22 22 22 23 23 23 24 24 25 25 25 25 25 26 26 26 25 25 25 26 26 26 26 26 26 27 27 27 27 27 27 27 26 25 25 24 24 24 23 23 22 21 20 19 18 17 17 16 16 16 16 16 15 15 15 16 16 16 17 17 17
19 19 19 19 19 20 20 20 21 21 21 21 22 22 23 23 24 24 25 25 25 25 25 25 25 25 25 26 26 26 26 26 26 26 27 27 28 28 27 26 25 24 23 23 23 23 23 22 21 20 20 19 18 17 17 17 17 17 17 16 16 16 16 17 17 16 16 16 16
18 18 19 19 19 19 19 19 20 20 20 21 21 22 22 23 23 24 24 24 24 24 24 24 25 25 25 25 25 25 26 26 26 26 27 27 27 27 27 26 24 23 23 23 23 23 22 22 21 20 19 18 18 17 17 17 17 17 17 17 17 17 16 16 16 16 15 16 16
18 18 18 18 19 19 19 19 19 19 20 20 21 21 21 22 22 23 23 23 23 23 24 24 24 25 25 25 25 25 26 26 26 27 27 27 27 27 26 25 23 23 22 22 22 22 22 21 20 19 19 18 17 17 17 17 17 17 17 17 17 16 16 15 15 15 15 15 16
18 18 18 18 18 18 18 19 19 19 19 19 20 20 20 21 21 21 22 22 22 23 24 24 24 25 25 25 25 26 26 26 26 26 26 26 26 26 25 24 23 22 22 22 22 21 21 20 20 19 18 17 16 16 16 16 16 16 17 17 16 16 15 15 15 15 15 15 16
18 18 18 18 18 18 18 18 18 19 19 19 19 19 20 20 20 21 21 21 22 22 23 23 24 24 24 25 25 25 26 26 26 26 26 26 25 25 24 23 23 22 22 22 21 21 20 19 19 18 16 15 15 15 16 16 17 17 17 16 15 15 14 14 14 14 15 16 17
18 18 17 17 18 18 18 18 18 18 18 18 18 19 19 19 20 20 21 21 21 21 22 22 22 23 23 23 24 24 25 25 25 25 25 25 25 24 24 23 22 22 21 21 20 20 19 18 17 16 15 14 15 15 16 17 18 17 17 16 15 14 14 14 14 15 16 17 19
17 17 17 17 17 17 17 17 18 18 18 18 18 18 18 19 19 19 20 20 20 21 21 22 22 22 22 23 23 23 24 24 25 25 25 24 24 24 24 23 22 21 20 20 19 19 18 17 16 15 14 14 15 16 17 18 18 18 17 17 16 16 15 15 16 17 18 19 20
16 16 16 17 17 17 17 17 17 17 17 18 18 18 18 18 18 19 19 19 19 20 20 21 21 22 22 23 23 23 23 23 24 24 24 24 24 24 23 23 21 20 19 18 18 18 17 16 15 14 14 14 15 17 17 18 18 18 19 19 18 18 17 17 18 19 20 21 21
16 15 16 16 16 17 17 17 17 17 17 17 17 17 17 17 18 18 18 19 19 20 20 21 21 21 22 22 22 22 22 22 22 23 23 23 23 23 23 22 21 19 17 17 17 16 16 15 14 14 14 14 15 16 17 18 19 19 20 20 20 19 19 19 20 21 21 22 22
15 15 15 15 15 16 16 16 16 16 16 16 16 16 16 17 17 17 18 18 19 19 20 20 20 21 21 21 21 21 21 21 21 22 22 23 23 22 22 21 19 17 16 15 15 15 14 14 13 12 13 14 15 15 16 17 18 19 20 21 21 21 21 21 22 22 22 23 23
14 14 14 14 14 14 15 15 15 15 15 15 15 15 15 16 16 16 17 17 18 18 19 19 19 19 19 19 20 20 20 20 21 21 21 21 21 21 21 20 18 16 15 14 14 13 13 12 11 11 12 13 14 14 15 16 18 19 20 21 22 22 22 22 22 23 23 23 23
13 13 13 13 12 13 13 14 14 13 13 13 14 14 14 14 15 15 16 17 17 18 18 18 18 18 18 18 19 19 19 20 20 20 20 20 20 20 19 18 17 15 14 13 13 12 12 11 11 11 12 12 13 14 15 16 18 20 21 22 22 23 23 23 23 23 24 24 24
Wind_Direction
202 201 199 199 199 199 199 200 202 202 201 200 199 199 200 200 201 202 203 203 203 204 204 205 206 206 207 207 208 208 209 210 211 212 214 216 217 218 218 217 216 216 215 215 215 215 215 214 214 214 214 215 214 212 208 205 204 204 206 208 209 211 215 219 220 220 220 220 221
202 201 200 200 200 200 200 201 202 203 203 202 202 201 202 202 202 203 205 205 206 206 206 206 207 207 208 208 209 209 210 210 212 213 215 216 218 218 218 217 217 216 216 215 215 215 214 214 213 213 214 215 215 212 209 206 205 205 206 208 209 212 216 220 222 223 222 222 222
201 200 199 199 199 200 200 200 202 203 204 203 203 203 203 204 204 205 207 208 208 208 208 208 209 209 209 210 210 210 211 212 212 213 215 216 218 218 218 218 217 216 216 216 215 215 215 214 213 212 213 214 214 213 210 207 206 205 206 207 209 212 217 220 222 223 223 224 224
201 200 199 198 199 200 201 202 204 205 205 204 204 204 204 205 206 208 209 209 209 209 209 210 210 211 211 211 210 210 211 212 213 214 215 216 217 218 218 218 217 217 216 216 216 216 216 215 213 212 213 213 214 214 213 209 207 205 206 207 209 213 218 221 222 223 224 224 225
200 200 199 200 201 203 204 206 206 206 205 204 203 204 205 206 207 208 210 210 210 211 212 212 212 212 212 211 211 211 211 212 213 214 215 217 217 218 218 218 217 217 216 216 216 216 216 215 213 213 213 213 214 215 215 212 209 206 205 206 209 214 219 222 223 224 225 226 227
200 200 201 202 204 205 206 207 208 207 206 205 204 204 205 206 208 209 210 211 212 213 213 213 213 213 212 212 212 212 212 212 213 214 215 216 217 217 217 217 217 217 216 216 216 216 216 214 212 212 212 213 215 216 216 214 211 208 205 205 207 212 218 222 224 225 226 227 227
201 201 201 203 205 206 206 207 208 207 206 205 205 205 207 208 209 211 212 214 214 214 213 213 213 213 213 213 212 212 212 212 213 213 215 216 217 217 217 217 217 217 216 216 216 216 215 213 211 211 211 212 214 215 215 213 212 210 207 206 206 210 216 220 223 225 227 228 229
202 202 203 204 206 206 207 208 207 206 206 206 207 208 210 211 212 213 214 215 214 214 214 214 214 215 215 214 213 213 213 212 213 213 214 215 216 217 217 217 216 216 216 216 215 215 213 212 211 210 211 211 213 214 214 212 212 211 210 208 207 209 214 218 221 224 227 229 231
201 202 204 205 206 207 208 208 208 207 207 208 209 211 212 213 214 214 214 214 216 216 216 216 216 217 217 216 215 214 214 213 213 213 214 215 216 217 217 216 215 215 215 215 215 214 212 210 210 211 211 212 212 212 212 211 211 212 211 210 209 210 213 216 219 223 226 230 232
200 201 203 204 206 207 208 208 209 209 209 210 211 213 214 215 216 216 216 217 218 218 217 217 218 217 217 217 217 216 215 214 214 214 215 215 216 216 216 215 214 214 214 214 214 213 211 209 209 210 212 212 212 212 211 211 211 213 213 211 210 211 213 215 218 221 225 229 233
201 202 203 204 205 206 207 207 208 210 210 211 212 213 214 216 217 218 219 219 218 218 218 219 219 219 219 219 218 218 217 215 215 215 215 216 216 216 216 215 215 214 214 214 214 213 211 210 209 210 211 211 211 211 210 210 211 213 213 212 211 212 214 215 218 221 225 229 234
202 203 204 205 206 206 207 207 208 208 210 211 213 214 215 217 218 219 219 219 219 219 220 221 221 220 220 220 219 218 217 216 216 216 216 216 217 217 216 216 216 215 215 215 215 214 212 211 210 210 210 210 209 209 209 209 210 212 213 212 212 213 214 216 218 221 225 230 237
203 203 204 205 206 206 206 207 207 208 209 211 213 215 216 218 219 219 220 220 221 221 222 222 222 222 222 221 220 218 217 216 216 216 217 217 217 217 216 216 216 216 216 216 216 215 213 212 211 210 209 208 207 207 207 207 209 211 212 212 212 213 214 215 217 221 227 234 241
204 204 204 205 205 206 206 207 208 208 210 212 214 216 217 218 219 220 220 221 222 222 222 222 223 223 223 222 221 219 217 217 217 217 217 217 217 216 216 215 216 216 216 215 215 214 213 212 212 211 208 207 206 205 206 207 209 210 211 212 213 213 213 214 216 222 230 238 243
204 205 205 205 206 206 207 207 208 209 210 212 214 216 217 218 219 220 221 222 223 223 223 223 223 223 223 223 221 219 218 217 217 216 216 216 216 216 215 215 215 215 214 213 213 213 213 214 213 211 209 207 206 205 206 207 208 210 212 213 214 213 213 213 217 224 234 241 245
204 205 205 206 206 206 207 208 209 210 211 212 214 216 217 218 219 220 221 221 222 223 223 223 223 223 222 221 221 219 218 217 216 216 215 215 215 215 214 214 214 214 213 212 211 211 212 213 213 212 210 208 207 206 206 207 209 211 213 214 214 214 214 215 220 229 237 242 245
203 205 206 206 207 207 208 209 210 211 212 213 215 216 217 218 218 219 220 220 221 222 222 223 223 222 220 219 219 218 217 216 216 215 215 215 215 214 213 213 213 214 213 213 211 211 211 212 212 211 210 209 208 208 207 208 209 211 213 214 214 214 215 218 224 231 237 241 245
204 205 207 207 208 209 210 211 211 212 213 214 215 216 217 218 218 219 220 221 222 222 222 223 223 222 220 219 218 217 217 216 216 215 215 215 215 214 214 213 214 215 214 214 213 213 212 211 211 210 210 210 209 209 209 210 212 214 215 215 215 215 217 220 226 232 237 241 245
205 206 208 208 210 211 212 213 213 214 214 215 216 217 217 218 219 220 220 221 223 223 223 222 221 221 221 220 218 218 217 217 216 216 216 216 216 216 216 216 216 217 217 216 216 216 215 213 211 210 209 209 209 208 209 212 214 216 216 216 216 216 218 222 227 232 237 242 247
208 208 210 211 212 213 213 214 214 215 216 216 216 216 217 219 220 221 221 221 223 224 223 222 221 220 220 220 219 218 218 218 217 217 217 217 217 218 219 219 220 220 220 219 218 217 216 213 211 210 209 208 207 207 208 211 214 216 217 217 217 218 220 224 229 233 238 243 248
210 211 212 213 213 213 213 213 214 215 215 216 216 216 217 219 220 221 222 223 223 223 222 221 221 220 220 219 219 218 218 218 217 217 217 218 219 220 222 222 223 222 221 220 218 216 213 212 211 210 209 207 205 205 207 210 213 215 216 217 217 219 223 227 231 236 240 245 250
211 211 211 211 212 212 212 212 213 214 214 215 216 216 217 218 220 221 222 223 223 222 221 221 222 222 221 221 220 219 218 217 216 216 217 218 220 221 223 223 223 223 221 220 216 213 210 208 209 208 207 205 204 204 206 208 211 213 214 216 218 221 225 229 233 238 243 248 254
209 209 209 209 209 209 209 210 211 212 213 214 215 216 217 218 219 220 220 221 221 221 221 222 222 223 223 223 222 220 218 216 215 215 217 219 220 221 222 223 223 222 222 219 215 211 207 206 206 206 205 204 203 203 205 208 210 212 214 217 220 224 228 231 236 242 248 253 258
206 206 206 206 207 207 208 209 210 211 212 213 214 215 216 217 217 218 218 219 220 221 221 221 221 222 222 222 221 220 218 216 215 215 217 219 220 221 221 222 222 222 222 220 216 211 207 205 204 203 202 202 202 203 205 207 210 212 216 219 223 227 231 236 241 247 252 256 260
204 205 205 205 205 206 207 208 210 211 212 213 214 215 215 216 216 217 217 218 219 220 220 220 220 221 220 220 220 220 219 219 218 217 218 220 221 221 221 221 222 222 222 220 216 212 208 206 203 201 200 200 201 203 205 208 211 214 218 221 225 230 235 241 247 252 255 259 262
204 204 205 205 206 207 207 209 210 211 212 213 214 214 215 215 216 217 217 218 218 219 219 220 220 220 219 218 219 219 219 220 221 222 221 221 220 220 220 221 221 221 220 218 215 211 208 206 204 202 200 200 201 203 206 209 212 216 220 224 227 232 237 243 249 255 258 261 264
206 206 206 207 207 207 208 210 211 212 213 214 214 214 215 215 216 217 217 218 218 218 219 219 220 219 219 218 218 219 219 221 222 223 224 223 221 220 220 221 221 221 220 216 213 209 207 206 205 203 202 202 203 205 207 210 213 217 221 225 228 233 238 245 252 257 261 263 267
208 208 208 208 208 208 209 211 211 212 213 214 215 215 215 216 216 217 217 217 218 217 218 218 219 219 218 218 219 220 221 222 222 223 224 224 223 222 221 222 222 221 219 214 210 207 206 206 205 205 204 204 205 207 210 213 216 219 222 226 229 234 240 247 253 259 262 266 270
211 211 210 209 208 209 210 211 211 212 214 215 215 215 216 216 217 217 217 217 217 216 216 217 217 218 217 218 220 221 222 222 222 223 223 223 223 223 223 223 223 221 217 211 207 205 205 205 206 206 206 206 208 210 213 216 219 222 225 228 232 236 242 248 253 258 264 269 275
213 211 210 210 209 210 210 211 213 214 215 216 215 215 216 216 217 217 217 216 217 217 218 218 217 217 217 219 221 221 221 221 222 223 222 222 222 223 224 224 223 219 214 208 205 204 205 205 206 207 208 209 211 213 216 220 223 226 228 231 235 239 244 249 255 261 267 273 280
213 211 211 211 210 211 212 213 215 215 216 216 215 215 215 216 216 217 217 218 218 219 219 219 218 218 220 221 221 221 221 221 222 222 223 223 224 224 224 224 222 217 210 205 204 204 205 206 207 208 210 212 214 216 219 223 226 230 233 236 240 244 249 255 260 266 272 278 284
213 212 212 212 212 213 214 215 215 215 216 216 216 216 216 217 217 218 219 219 219 218 218 218 219 220 221 221 222 222 222 222 221 222 223 224 225 225 225 223 220 214 208 204 204 204 205 206 208 210 212 216 219 222 224 227 231 235 238 242 246 250 255 261 266 271 277 282 287
212 213 213 213 213 214 215 215 215 215 216 216 217 217 218 218 219 219 219 219 219 218 218 219 220 220 221 221 221 221 222 222 223 223 224 225 225 225 225 222 218 212 207 205 205 205 207 208 209 211 214 219 225 230 233 235 237 240 243 247 251 255 260 265 270 275 281 286 290
212 213 213 214 215 215 215 215 215 215 216 216 217 218 219 220 219 219 219 219 220 220 222 223 223 223 223 223 223 222 222 223 223 223 224 224 225 225 224 222 217 211 207 206 206 207 208 210 212 214 216 219 226 234 240 243 244 246 248 251 255 259 264 268 273 278 283 287 290
212 213 213 214 215 215 214 214 214 215 215 216 217 219 221 222 222 222 222 222 221 221 222 223 223 223 223 224 224 224 223 223 223 223 223 224 224 224 224 222 217 212 208 207 208 209 210 212 214 216 217 221 227 234 241 245 248 251 253 256 260 263 268 272 277 281 285 288 290
213 213 214 214 214 214 214 214 214 215 216 218 220 221 223 224 225 226 225 223 222 220 220 221 221 221 221 222 223 224 224 224 223 223 224 224 224 224 223 221 218 214 210 209 209 211 212 214 216 218 220 223 228 233 239 244 248 252 256 259 263 267 271 276 279 283 285 288 289
213 214 214 215 214 214 214 214 215 216 218 221 223 224 225 225 225 225 225 223 221 220 221 222 222 221 222 223 224 225 225 226 225 225 225 225 225 224 224 222 219 216 213 211 212 213 215 217 219 221 223 227 231 235 238 242 246 250 254 258 263 268 273 277 280 282 284 286 287
213 214 214 215 215 215 215 215 217 218 221 223 225 227 228 228 227 225 225 224 222 222 223 224 224 225 226 227 227 227 227 227 227 226 226 226 226 225 224 224 222 219 216 214 215 216 218 220 222 225 228 231 234 237 239 241 245 249 253 257 263 268 272 275 277 279 281 283 286
211 212 214 214 215 215 215 216 219 221 223 225 226 227 229 229 228 227 226 226 226 226 226 227 227 228 228 228 228 228 228 228 228 228 228 227 227 226 226 226 225 222 219 218 219 220 222 224 226 229 232 235 237 239 241 243 247 250 254 258 263 267 271 274 275 277 280 284 286
208 210 211 213 214 215 216 217 220 222 224 225 226 228 228 228 228 227 226 227 228 229 230 230 231 231 230 229 229 228 229 229 229 229 229 229 229 229 228 228 228 226 224 223 224 226 227 229 230 232 234 237 240 242 244 247 250 254 258 261 264 268 272 275 277 280 282 285 288
205 206 208 210 212 214 215 217 219 221 223 225 228 229 230 230 228 226 225 225 226 228 230 231 232 232 231 230 230 230 230 230 230 230 230 230 231 231 232 232 231 229 228 227 228 229 230 231 232 233 236 239 243 247 249 251 254 258 262 265 269 272 275 278 281 284 286 288 290